Terminal Aerodrome Forecast
Issued by NWS North Platte, NE

Home | Current Version | Previous Version | Text Only | Print | Product List | Glossary On
Versions: 1 2 3 4 5 6 7 8 9 10 11 12 13
000
FTUS43 KLBF 310500
TAFLBF
TAF
KLBF 310520Z 3106/0106 24006KT P6SM SCT150
     FM311900 32009KT P6SM SCT120
     FM010100 32003KT P6SM SCT120=

USA.gov is the U.S. government's official web portal to all federal, state and local government web resources and services.